Location: San Pelegr�n
(42.1868°N, 0.0079°E)
Time: 14:59:38
(UTC+00:00)

Cosmos 1340 Rocket - Pass Details

Date: 24 January 2020
Orbit: 530 x 558 km, 81.2° (Epoch: 22 February)

Event Time Altitude Azimuth Distance (km) Brightness Sun altitude
Rises 17:46:21 0° 346° (NNW) 2,699 6.3 -8.2°
Reaches altitude 10° 17:48:32 10° 342° (NNW) 1,807 5.5 -8.6°
Maximum altitude 17:52:26 57° 264° (W) 642 3.6 -9.3°
Drops below altitude 10° 17:56:20 10° 185° (S) 1,809 5.8 -10.0°
Sets 17:58:31 0° 181° (S) 2,702 6.6 -10.4°
